| time (UTC) | temp C | wind direction | speed KPH | gust KPH | rain 1hr cm | rain 24hr cm | rain mn cm | humidity % | barometer mb |
| 20260503230046 | 32 | 343 | 4.8 | 9.7 | 0.00 | 0.00 | 0.00 | 23 | 1007.5 |
| 20260503224548 | 32 | 54 | 4.8 | 14.5 | 0.00 | 0.00 | 0.00 | 22 | 1007.8 |
| 20260503223043 | 32 | 82 | 1.6 | 6.4 | 0.00 | 0.00 | 0.00 | 30 | 1008.0 |
| 20260503221537 | 31 | 163 | 4.8 | 12.9 | 0.00 | 0.00 | 0.00 | 26 | 1008.2 |
| 20260503220039 | 31 | 17 | 4.8 | 17.7 | 0.00 | 0.00 | 0.00 | 26 | 1008.5 |
| 20260503214541 | 32 | 34 | 4.8 | 11.3 | 0.00 | 0.00 | 0.00 | 27 | 1008.7 |
| 20260503213049 | 31 | 344 | 3.2 | 11.3 | 0.00 | 0.00 | 0.00 | 25 | 1008.9 |
| 20260503211527 | 31 | 23 | 1.6 | 8.0 | 0.00 | 0.00 | 0.00 | 28 | 1009.0 |
| 20260503210023 | 31 | 34 | 4.8 | 11.3 | 0.00 | 0.00 | 0.00 | 27 | 1009.2 |
| 20260503204521 | 31 | 68 | 4.8 | 11.3 | 0.00 | 0.00 | 0.00 | 28 | 1009.4 |
| 20260503203023 | 30 | 155 | 3.2 | 14.5 | 0.00 | 0.00 | 0.00 | 30 | 1009.6 |
| 20260503201514 | 30 | 86 | 6.4 | 14.5 | 0.00 | 0.00 | 0.00 | 31 | 1009.7 |
| 20260503200011 | 30 | 170 | 3.2 | 14.5 | 0.00 | 0.00 | 0.00 | 35 | 1009.9 |
| 20260503194509 | 29 | 33 | 3.2 | 16.1 | 0.00 | 0.00 | 0.00 | 32 | 1010.2 |
| 20260503193003 | 28 | 187 | 6.4 | 12.9 | 0.00 | 0.00 | 0.00 | 43 | 1010.2 |
| 20260503191606 | 27 | 146 | 3.2 | 6.4 | 0.00 | 0.00 | 0.00 | 53 | 1010.4 |
| 20260503190055 | 27 | 180 | 4.8 | 8.0 | 0.00 | 0.08 | 0.00 | 55 | 1010.6 |
| 20260503184611 | 26 | 184 | 1.6 | 6.4 | 0.00 | 0.08 | 0.00 | 55 | 1010.7 |
| 20260503183048 | 26 | 224 | 3.2 | 8.0 | 0.00 | 0.08 | 0.00 | 59 | 1010.9 |
| 20260503181544 | 25 | 182 | 1.6 | 6.4 | 0.00 | 0.08 | 0.00 | 56 | 1011.1 |
| 20260503180040 | 24 | 141 | 1.6 | 6.4 | 0.00 | 0.08 | 0.00 | 60 | 1011.3 |
| 20260503174545 | 23 | 148 | 3.2 | 8.0 | 0.00 | 0.08 | 0.00 | 64 | 1011.4 |
| 20260503173035 | 23 | 184 | 3.2 | 6.4 | 0.00 | 0.08 | 0.00 | 65 | 1011.5 |
| 20260503171534 | 22 | 165 | 1.6 | 4.8 | 0.00 | 0.08 | 0.00 | 63 | 1011.5 |
| 20260503081536 | 12 | 342 | 1.6 | 3.2 | 0.00 | 0.08 | 0.00 | 80 | 1012.3 |
| 20260503071512 | 14 | 331 | 1.6 | 6.4 | 0.00 | 0.08 | 0.00 | 82 | 1012.5 |
| 20260503054512 | 14 | 16 | 3.2 | 4.8 | 0.00 | 0.08 | 0.08 | 79 | 1012.5 |
| 20260503053006 | 14 | 340 | 0.0 | 4.8 | 0.00 | 0.08 | 0.08 | 79 | 1012.6 |
| 20260503051505 | 14 | 57 | 0.0 | 3.2 | 0.00 | 0.08 | 0.08 | 80 | 1012.8 |
| 20260503050006 | 15 | 13 | 0.0 | 3.2 | 0.00 | 0.08 | 0.08 | 80 | 1012.6 |
| 20260503044504 | 15 | 140 | 1.6 | 4.8 | 0.00 | 0.08 | 0.08 | 80 | 1012.7 |
| 20260503043005 | 15 | 42 | 1.6 | 4.8 | 0.00 | 0.08 | 0.08 | 81 | 1012.8 |
| 20260503041504 | 15 | 36 | 0.0 | 4.8 | 0.00 | 0.08 | 0.08 | 81 | 1012.9 |
| 20260503040005 | 16 | 34 | 1.6 | 4.8 | 0.00 | 0.08 | 0.08 | 81 | 1012.9 |
| 20260503034502 | 16 | 331 | 0.0 | 3.2 | 0.00 | 0.08 | 0.08 | 81 | 1012.6 |
| 20260503033002 | 17 | 331 | 0.0 | 3.2 | 0.00 | 0.08 | 0.08 | 80 | 1012.5 |
| 20260503031501 | 18 | 331 | 1.6 | 4.8 | 0.00 | 0.08 | 0.08 | 77 | 1012.6 |
| 20260503030003 | 18 | 240 | 0.0 | 3.2 | 0.00 | 0.08 | 0.08 | 74 | 1012.5 |
| 20260503024501 | 18 | 216 | 1.6 | 8.0 | 0.00 | 0.08 | 0.08 | 75 | 1012.3 |
| 20260503023100 | 19 | 173 | 3.2 | 9.7 | 0.00 | 0.08 | 0.08 | 77 | 1012.2 |
| 20260503021559 | 20 | 148 | 0.0 | 3.2 | 0.00 | 0.08 | 0.08 | 78 | 1011.5 |
| 20260503020104 | 20 | 148 | 0.0 | 1.6 | 0.00 | 0.08 | 0.08 | 76 | 1011.3 |
| 20260503014628 | 20 | 148 | 0.0 | 3.2 | 0.00 | 0.08 | 0.08 | 74 | 1011.1 |
| 20260503013059 | 20 | 148 | 0.0 | 3.2 | 0.00 | 0.08 | 0.08 | 73 | 1011.1 |
| 20260503011625 | 20 | 148 | 0.0 | 4.8 | 0.00 | 0.08 | 0.08 | 74 | 1011.0 |
| 20260503010057 | 21 | 148 | 1.6 | 3.2 | 0.00 | 0.08 | 0.08 | 72 | 1011.1 |
| 20260503004556 | 21 | 148 | 0.0 | 3.2 | 0.00 | 0.08 | 0.08 | 71 | 1011.2 |
| 20260503003057 | 20 | 148 | 1.6 | 6.4 | 0.00 | 0.08 | 0.08 | 71 | 1011.2 |
| 20260503001554 | 21 | 149 | 3.2 | 6.4 | 0.00 | 0.08 | 0.08 | 70 | 1011.1 |
| 20260503000052 | 21 | 142 | 1.6 | 6.4 | 0.00 | 0.08 | 0.08 | 70 | 1011.3 |
| 20260502234610 | 20 | 139 | 1.6 | 8.0 | 0.00 | 0.08 | 0.08 | 72 | 1011.4 |
| 20260502233049 | 20 | 138 | 3.2 | 9.7 | 0.00 | 0.08 | 0.08 | 71 | 1011.7 |
| 20260502231548 | 21 | 148 | 4.8 | 8.0 | 0.00 | 0.08 | 0.08 | 72 | 1011.8 |